Hourly Data Report for October 15, 2017

All times are specified in Local Standard Time (LST). Add 1 hour to adjust for Daylight Saving Time where and when it is observed.

PANGNIRTUNG
NUNAVUT

66°08'36.300" N
65°42'40.500" W
22.60 m
2403049
71826
WXP

Download Data

Hourly Data (October 2017)
Hourly Data Report for October 15, 2017
Temp Definition
°C
Dew Point Temp Definition
°C
Rel Hum Definition
%
Wind Dir Definition
10's deg

Wind Spd Definition
km/h
Visibility Definition
km
Stn Press Definition
kPa
Hmdx Definition


Wind Chill Definition


Weather Definition


TIME
00:00 -1.6 -10.9 49 13 16   99.11   -7 LegendNANA
01:00 -2.2 -9.4 58 12 18   99.16   -8 LegendNANA
02:00 -1.9 -10.3 53 15 13   99.16   -6 LegendNANA
03:00 -2.3 -9.3 59 14 20   99.20   -8 LegendNANA
04:00 -1.3 -11.2 47 13 11   99.19   -5 LegendNANA
05:00 -1.7 -10.8 50 13 16   99.22   -7 LegendNANA
06:00 -2.5 -10.2 56 14 17   99.24   -8 LegendNANA
07:00 -1.9 -10.4 53 13 12   99.27   -6 LegendNANA
08:00 -2.0 -10.1 54 15 18   99.31   -7 LegendNANA
09:00 -1.9 -10.1 54 15 17   99.34   -7 LegendNANA
10:00 -1.6 -10.4 51 13 16   99.35   -7 LegendNANA
11:00 -1.9 -10.6 51 11 14   99.38   -7 LegendNANA
12:00 -1.8 -10.9 50 13 8   99.41   -5 LegendNANA
13:00 -1.9 -10.0 54 14 3   99.43   -3 LegendNANA
14:00 -3.2 -9.3 62 20 3   99.48   -4 LegendNANA
15:00 -3.1 -9.7 60 21 4   99.53   -5 LegendNANA
16:00 -3.8 -9.2 66 19 2   99.57   -5 LegendNANA
17:00 -4.1 -9.6 66 25 3   99.61   -5 LegendNANA
18:00 -4.5 -9.6 67 25 3   99.63   -6 LegendNANA
19:00 -4.3 -9.6 66 26 4   99.64   -6 LegendNANA
20:00 -4.1 -9.9 64 17 3   99.64   -5 LegendNANA
21:00 -5.0 -10.5 65 23 4   99.65   -7 LegendNANA
22:00 -5.5 -10.6 67 36 2   99.64   -6 LegendNANA
23:00 -5.1 -10.7 65 13 6   99.65   -8 LegendNANA

Notes on Data Quality.

Legend

  • E = Estimated
  • M = Missing
  • NA = Not Available
  • ‡ = Partner data that is not subject to review by the National Climate Archives
Date modified: